This is the latest recevied weather packets stored in our database for station/object UR7D-12. If no packets are shown the sender has not sent any weather packets the latest 10 day(s).
| Time | Temp. | Humidity | Pressure | Rain* | Wind** | Luminosity | Snow |
|---|---|---|---|---|---|---|---|
| 1777994799 | 25.56° C | 29% | 986.1 hPa | 0 mm | - | - | - |
| 1777994498 | 26.11° C | 30% | 986.1 hPa | 0 mm | - | - | - |
| 1777993898 | 26.11° C | 31% | 986.2 hPa | 0 mm | - | - | - |
| 1777993297 | 25.56° C | 29% | 986.2 hPa | 0 mm | - | - | - |
| 1777992997 | 25.56° C | 29% | 986.3 hPa | 0 mm | - | - | - |
| 1777992699 | 26.11° C | 30% | 986.4 hPa | 0 mm | - | - | - |
| 1777992397 | 26.11° C | 29% | 986.4 hPa | 0 mm | - | - | - |
| 1777991796 | 26.11° C | 30% | 986.5 hPa | 0 mm | - | - | - |
| 1777991496 | 26.11° C | 29% | 986.5 hPa | 0 mm | - | - | - |
| 1777991195 | 26.11° C | 32% | 986.5 hPa | 0 mm | - | - | - |
| 1777989994 | 26.11° C | 29% | 986.8 hPa | 0 mm | - | - | - |
| 1777989694 | 25.56° C | 29% | 986.8 hPa | 0 mm | - | - | - |
| 1777989394 | 26.11° C | 29% | 986.8 hPa | 0 mm | - | - | - |
| 1777989093 | 25.56° C | 30% | 986.8 hPa | 0 mm | - | - | - |
| 1777988793 | 25.56° C | 30% | 986.9 hPa | 0 mm | - | - | - |
| 1777988493 | 25.56° C | 30% | 986.9 hPa | 0 mm | - | - | - |
| 1777987892 | 25.56° C | 29% | 987.2 hPa | 0 mm | - | - | - |
| 1777987292 | 25.56° C | 31% | 987.2 hPa | 0 mm | - | - | - |
| 1777986691 | 25.56° C | 31% | 987.4 hPa | 0 mm | - | - | - |
| 1777986391 | 25.56° C | 32% | 987.4 hPa | 0 mm | - | - | - |
| 1777986090 | 25.56° C | 30% | 987.5 hPa | 0 mm | - | - | - |
| 1777984889 | 25.56° C | 33% | 987.7 hPa | 0 mm | - | - | - |
| 1777983088 | 24.44° C | 32% | 988.2 hPa | 0 mm | - | - | - |
| 1777982487 | 24.44° C | 33% | 988.3 hPa | 0 mm | - | - | - |
| 1777981887 | 25° C | 34% | 988.3 hPa | 0 mm | - | - | - |
* Rain latest hour (hover to see other rain measurements)
** Current wind speed in m/s (hover to see current wind gust speed)